User: anonymous   Login
Location: Unspecified
(0.0000°N, 0.0000°E)
Time: 13:19:23
(UTC+00:00)
Language:

FAST 2 (USA 228) - Orbit

View from above orbital plane
View from above orbital plane
View from above satellite
View from above satellite

Ground track
Ground track

The orbit data is extracted from the following two-line orbital elements,

1 37380U 10062M   21015.81949932  .00000060  00000-0  15726-4 0  9995
2 37380  71.9709 219.9949 0018311 227.9050 132.0557 14.79347441 72813
Epoch (UTC): 15 January 2021 19:40:04
Eccentricity: 0.0018311
inclination: 71.9709°
perigee height: 618 km
apogee height: 644 km
right ascension of ascending node: 219.9949°
argument of perigee: 227.9050°
revolutions per day: 14.79347441
mean anomaly at epoch: 132.0557°
orbit number at epoch: 7281

The dashed part of the orbit path shows where the satellite is in the earth's shadow,  

DLR